THORAD AGENA D DEB, 4980

Orbit data source: Space-Track

THORAD AGENA D DEB, 4980 is space debris in SSO originally from a launch on Wed, 08 Apr 1970 UTC launched from the Air Force Western Test Range (AFWTR). Debris objects in space refer to the collection of defunct objects orbiting the Earth. Examples of debris include non-operational satellites, rocket bodies, and fragments generated from explosions, collisions, or faulty payload assembly.

Loading next visibility...
Identifier
4980, 1970-025HA
Orbit
SSO
Country
Flag of USUS
Related business
Manufacturer
Unknown
Mission
Spacecraft
Bus & Motor
Unknown
Mass
Unknown
Launch date (UTC)
1970-04-08 (56 years ago)
Launch vehicle
Unknown
Launch site
Air Force Western Test Range (AFWTR)
Object type
Payload
Rocket body
Debris
Shape & HBR
Unknown shape, 0.1 m
Radar Cross Section
Small (<0.1 m²)

Expand to show TLE details & history
Last TLE update: 12 hours ago

TLE from 12 hours ago
0 THORAD AGENA D DEB
1  4980U 70025HA  26063.01291397  .00000406  00000-0  57997-3 0  9994
2  4980  99.2877 259.6369 0008836  58.6290  94.9333 13.62074117765900
Epoch: 2026-03-04T00:18Z
TLE epoch observation values (Epoch: 2026-03-04T00:18:35.767Z)
Latitude
25.99906°
Longitude
-82.24484°
Altitude
1,031.804 km
Speed
7.338 km/s
True Right ascension
05h 36m 45s
True Declination
25° 52' 08"
Sunlit
Object was in daylight at epoch
Visualization orbit readout
Latitude
Unknown
Longitude
Unknown
Altitude
Unknown
Speed
Unknown
Apparent Right ascension
Unknown
Apparent Declination
Unknown
Sunlit
N/A
Visualization observer readout
Local Sidereal Time
16:32:13
Azimuth
Unknown
Elevation
Unknown
Doppler factor
Unknown
Orbital elements
Apogee altitude
1,031.97 km
Perigee altitude
1,018.886 km
Semi-major axis
7,403.565 km
Eccentricity
0.00088
Inclination
99.2877°
RAAN
259.6369°
Arg. of periapsis
58.629°
True anomaly
95.03417°
Mean anomaly
94.9333°
Eccentric anomaly
94.98374°
Mean motion
3.40708 °/min
Orbital period
105.66 mins
BSTAR
0.00057997

Documentation

Showing up to 5 results
|